RH
47 38 33 37 57 77 43 34 27 28 30 28 27 34 32 33 67 73 30 29 33 38 49 60 81 78 77 79 82 80 75 74 74 74 74 72 72 72 71 71 72 72 72 71 69 69 69 72 70
31 35 40 36 56 85 66 28 31 29 28 27 26 25 26 37 34 38 35 34 32 35 40 50 85 82 78 79 79 80 76 74 76 75 77 72 72 71 70 69 68 69 68 68 68 68 67 72 72
36 40 41 38 37 79 45 38 29 28 26 26 27 22 26 36 37 35 35 36 34 36 38 58 84 83 79 78 76 78 78 78 76 73 75 75 72 72 73 71 69 68 66 65 66 66 68 70 71
36 38 37 63 52 38 45 32 30 26 25 25 24 32 31 31 34 30 32 35 39 36 39 72 80 80 78 76 75 76 78 78 77 74 69 66 67 65 67 66 69 66 64 65 67 69 70 71 68
32 29 56 46 41 34 29 28 27 28 26 24 27 42 38 35 30 30 32 39 42 34 42 56 82 75 79 82 82 78 77 71 70 74 67 68 70 62 67 71 65 63 64 66 68 68 70 71 69
55 26 44 52 39 33 30 27 27 26 27 27 27 28 37 33 32 31 30 44 34 41 45 54 72 74 77 75 74 73 73 65 78 71 61 64 64 73 64 64 67 64 64 66 68 68 68 69 72
28 34 31 27 29 35 33 25 28 26 28 29 24 72 36 34 32 29 36 45 44 41 59 54 56 68 73 75 75 71 67 67 74 79 73 64 66 73 70 65 68 66 67 69 68 67 66 67 68
26 36 33 26 36 34 26 25 25 25 38 24 23 74 78 36 31 31 39 42 57 52 57 60 59 60 72 62 76 74 69 70 70 69 68 64 79 70 70 69 70 67 68 64 65 68 70 69 69
23 56 43 31 37 36 24 26 23 22 24 24 28 29 30 34 30 36 47 51 55 59 65 54 57 70 76 90 64 76 78 72 73 72 69 70 78 75 67 68 66 67 68 65 66 68 70 69 66
24 29 30 24 23 30 25 26 25 25 26 34 29 29 31 34 33 36 52 55 54 54 66 54 63 72 64 52 62 71 72 94 94 90 84 90 75 83 69 61 68 66 68 67 67 69 70 66 73
22 28 22 23 22 22 24 26 23 25 40 36 32 42 34 35 34 37 41 46 44 49 52 67 61 69 57 66 80 78 67 91 95 88 89 85 70 59 50 41 42 45 61 44 75 56 72 48 54
23 20 18 20 19 23 26 23 26 25 26 31 26 34 32 35 30 38 41 39 48 42 45 48 57 71 66 79 72 71 76 66 74 88 89 77 83 57 68 43 32 41 44 61 76 89 48 46 47
19 18 17 18 20 23 23 26 27 26 23 23 24 28 30 30 29 31 40 37 39 48 56 54 50 65 76 82 70 80 62 76 63 73 78 80 76 81 68 42 36 43 58 54 46 60 57 57 45
15 17 17 17 19 19 23 24 25 24 22 25 28 29 28 28 27 35 39 39 50 52 47 64 62 56 54 62 62 54 57 58 88 90 88 80 85 56 48 38 36 39 67 63 57 57 64 51 35
15 18 16 14 17 19 22 29 26 24 24 26 28 28 27 28 26 34 38 42 46 45 44 49 62 56 58 68 69 76 62 68 62 87 86 65 91 57 54 39 54 42 70 49 49 49 57 52 37
16 18 18 13 16 19 22 28 25 23 25 27 30 29 28 28 25 27 29 39 44 52 52 60 43 46 56 63 74 78 87 56 88 83 80 62 79 55 58 45 44 50 55 48 42 63 62 62 57
15 28 17 14 12 13 21 26 20 22 24 25 32 33 28 28 28 28 27 31 38 53 56 61 48 61 60 61 80 83 69 61 59 91 88 68 60 55 54 46 66 52 60 77 49 39 45 61 62
27 17 14 16 12 15 18 18 18 23 26 25 30 34 29 30 28 28 27 27 36 44 49 46 46 54 60 80 81 81 56 57 62 57 68 76 63 52 57 40 57 51 60 53 39 54 44 51 41
14 16 14 13 11 15 17 17 22 20 29 29 27 34 32 32 29 28 27 28 29 37 41 49 54 66 73 70 72 61 55 60 66 72 68 76 61 52 59 44 52 55 62 62 54 50 53 75 42
14 14 13 12 11 13 18 19 24 23 27 28 26 30 33 31 35 30 28 30 28 34 42 49 61 67 69 85 73 58 62 72 54 68 81 68 56 56 56 70 56 63 44 56 59 60 48 40 43
13 12 12 13 12 14 42 34 24 28 27 29 27 24 26 38 30 31 30 28 27 34 44 50 60 68 72 73 84 57 66 62 61 60 61 56 53 53 56 58 67 58 54 44 58 65 59 60 42
12 10 10 12 13 18 18 74 24 24 32 31 28 27 24 24 27 29 26 26 26 32 40 47 64 71 70 67 77 66 56 67 53 63 45 46 53 50 51 54 55 60 48 56 52 51 70 56 51
12 9 10 11 13 14 17 47 23 20 23 25 26 25 24 25 25 29 26 26 26 34 36 44 57 78 71 68 74 63 61 56 61 50 62 63 61 53 48 56 58 61 53 57 60 58 63 50 45
9 10 10 10 10 30 11 32 29 23 26 22 20 22 23 27 27 27 24 27 36 35 35 42 57 72 69 69 64 70 78 76 73 56 54 47 46 48 55 52 60 63 66 61 54 57 59 62 58
10 10 14 14 13 24 11 20 24 22 20 21 20 21 23 27 26 24 29 31 34 36 39 42 57 65 64 67 64 65 62 62 59 57 50 55 46 38 55 57 61 60 70 60 58 64 66 61 57
11 8 12 20 16 17 11 24 26 20 18 18 20 19 20 20 21 22 25 27 31 37 40 43 55 62 61 61 66 71 64 52 51 54 61 48 42 40 54 52 51 58 54 55 58 52 52 60 56
10 11 7 9 8 10 15 18 20 21 24 24 24 26 25 22 20 21 22 25 30 34 42 44 53 58 58 54 61 64 64 62 51 63 51 55 66 58 56 53 54 52 53 54 63 52 58 62 59
9 9 9 8 22 19 16 16 24 28 31 29 29 30 32 31 31 26 22 22 26 29 34 42 49 53 53 52 54 56 57 61 54 56 58 65 68 59 75 53 55 53 57 61 64 56 60 67 52
10 9 9 7 10 14 16 34 26 34 29 30 31 32 33 35 35 34 30 24 24 26 28 36 46 49 52 51 51 52 52 52 54 49 52 54 56 66 57 59 58 59 58 60 71 67 62 68 61
10 10 9 12 18 15 15 25 24 30 29 28 32 33 34 36 37 35 36 30 30 30 30 32 42 44 46 49 52 51 51 52 48 53 52 56 60 59 58 62 70 69 62 74 68 66 54 67 58
Wind_Speed
12 14 6 6 7 4 6 5 7 6 11 7 8 11 11 14 1 5 15 12 20 20 18 16 13 14 13 13 15 15 16 15 14 13 12 11 11 10 9 9 7 8 8 8 7 7 8 9 8
14 2 6 7 3 6 3 10 10 10 11 5 7 4 7 14 13 9 12 18 19 19 17 16 13 14 14 14 14 15 15 16 14 13 11 11 10 8 7 7 6 6 6 6 5 5 6 8 8
12 4 9 5 2 2 6 8 9 9 6 0 5 6 6 9 6 6 14 18 19 18 18 15 14 15 13 15 15 14 14 14 14 14 9 7 6 3 4 5 5 4 3 3 4 3 4 6 6
6 6 7 5 4 6 2 8 2 8 3 2 2 10 10 9 6 9 17 17 16 17 18 16 16 17 14 14 12 12 13 12 13 15 12 6 8 2 3 3 4 3 2 2 3 3 5 6 6
10 8 4 6 4 6 4 5 1 2 4 5 11 7 14 8 10 15 18 18 15 16 19 15 16 16 16 15 15 15 12 10 9 9 8 6 6 6 4 5 4 3 2 2 3 3 3 5 9
4 5 5 6 7 4 1 3 1 2 4 5 5 11 12 11 12 14 19 16 15 15 16 16 16 14 14 13 15 15 11 7 11 10 5 5 2 8 8 6 4 2 3 2 3 3 2 3 6
7 5 5 8 6 7 2 4 6 3 4 3 1 5 12 15 12 14 14 16 11 13 14 15 14 13 12 10 11 10 9 6 7 8 2 5 3 8 9 6 5 4 4 3 2 2 3 2 5
7 4 5 7 10 7 6 5 3 8 10 4 4 4 1 16 13 14 16 15 10 14 14 14 13 11 9 9 6 4 7 6 6 8 1 2 7 7 5 9 8 6 5 4 3 3 3 4 5
9 6 7 10 6 6 7 5 10 5 5 4 4 10 14 15 13 16 13 14 11 9 11 14 14 12 10 5 9 6 6 6 1 2 3 7 5 8 10 8 4 5 6 5 5 5 6 7 9
9 8 8 7 7 5 3 4 4 6 6 3 7 10 14 14 12 15 18 14 15 13 9 14 13 13 13 11 7 7 7 2 3 1 4 1 6 5 4 10 9 7 8 8 7 9 9 9 2
3 8 7 7 9 8 7 2 3 4 12 4 7 4 15 13 12 14 12 17 16 15 13 11 13 12 13 8 5 4 5 4 3 2 4 4 6 7 10 8 8 9 12 7 4 10 5 5 3
4 4 7 8 6 5 4 2 4 4 0 15 1 19 13 13 12 16 12 10 11 13 13 12 12 12 13 8 8 8 6 6 6 6 5 5 3 8 6 7 4 1 5 4 12 9 4 3 2
4 9 8 5 4 4 6 5 5 6 2 3 5 8 11 11 11 17 15 13 14 12 12 10 13 10 8 9 8 9 9 6 8 8 7 4 6 5 5 3 6 4 4 4 2 4 1 2 5
8 9 7 3 4 3 6 6 4 3 11 7 8 10 11 11 12 15 12 15 11 10 12 15 9 11 9 7 7 6 5 7 3 6 6 8 5 6 8 5 7 4 4 5 2 3 1 4 2
10 11 6 3 3 3 11 12 7 4 5 9 11 10 11 10 10 20 13 11 12 12 11 12 15 11 11 10 8 5 7 6 7 6 8 11 5 9 6 4 4 4 5 1 4 5 3 6 2
12 9 2 7 3 4 6 7 5 8 10 12 11 12 10 11 12 13 17 13 14 7 12 10 12 12 11 9 8 7 5 5 4 4 7 9 6 7 7 3 5 4 7 5 4 2 3 2 1
10 13 7 3 1 2 3 10 6 7 11 12 13 10 11 12 13 11 14 17 13 15 13 12 12 8 11 9 6 7 7 5 6 4 5 8 9 9 8 5 4 3 6 4 1 2 3 3 5
10 8 5 6 7 9 8 5 5 11 9 10 15 13 14 14 13 15 14 12 14 14 10 11 10 8 9 6 5 5 5 7 6 7 7 8 7 9 7 6 2 6 3 4 2 4 4 3 4
6 6 9 5 3 7 8 6 7 2 9 9 13 16 14 13 12 15 13 13 12 14 12 12 9 10 8 8 8 6 7 5 4 6 7 7 10 10 8 8 7 5 4 4 2 4 7 7 2
8 10 5 3 8 6 4 7 8 6 7 9 9 13 16 16 13 14 14 14 15 13 11 11 12 12 10 6 7 6 6 7 9 7 7 10 8 7 9 2 4 5 4 2 2 5 8 2 3
15 11 8 9 10 4 30 14 9 10 7 6 7 6 11 14 16 13 14 15 13 14 13 12 10 10 10 10 6 6 6 4 7 9 7 9 11 10 6 6 5 4 6 7 4 5 7 5 2
13 5 6 11 12 7 16 5 10 15 9 5 8 8 6 13 19 15 15 13 13 10 13 11 12 11 10 11 10 9 8 8 8 8 9 10 10 9 10 8 7 4 5 3 4 7 4 5 0
14 2 10 14 12 1 4 10 16 13 11 10 7 8 9 12 9 13 14 11 7 8 12 12 12 11 11 11 11 9 9 8 8 8 13 6 9 9 9 9 7 6 7 4 6 2 3 4 6
11 11 15 17 16 10 1 17 6 12 10 8 7 9 8 13 13 14 11 11 8 13 11 12 13 12 12 11 12 12 8 7 6 8 9 9 11 10 11 12 8 7 6 4 5 4 4 5 5
13 14 12 9 5 9 3 10 12 11 8 10 9 7 8 16 15 14 13 11 14 12 12 12 13 13 12 12 12 10 11 12 9 9 8 9 8 9 12 9 10 8 8 7 6 5 4 4 5
9 15 11 3 1 5 5 13 10 12 12 12 13 8 9 8 12 16 15 13 12 12 13 14 15 14 14 13 12 10 12 10 8 10 5 8 7 8 12 11 10 10 8 9 6 6 7 7 6
7 12 11 8 8 4 6 21 17 12 12 11 12 12 12 9 7 9 11 11 12 13 13 14 15 14 15 15 13 12 12 13 11 9 10 7 4 2 12 12 10 10 9 8 7 8 7 3 6
14 11 8 7 7 2 6 10 11 11 12 11 10 12 10 9 10 11 6 13 12 14 14 14 15 16 15 14 14 13 15 14 12 8 11 7 4 6 7 10 10 11 9 9 8 8 8 6 7
10 11 9 10 10 8 5 5 10 11 11 12 11 11 11 11 10 7 7 9 9 11 13 15 14 16 15 15 15 15 15 16 14 13 11 10 8 6 6 8 10 10 10 10 9 9 6 8 8
8 15 13 7 8 4 8 8 10 10 11 12 12 12 12 12 11 12 11 8 4 5 9 12 14 15 15 14 13 15 15 15 17 14 14 13 11 9 11 11 10 9 11 9 10 11 9 11 9
Wind_Direction
213 217 251 251 250 71 123 99 114 115 90 72 35 35 54 55 172 96 122 142 131 130 130 141 135 132 128 133 137 135 133 134 133 134 135 141 135 138 140 141 139 133 129 126 121 115 115 112 109
259 259 230 266 212 302 38 80 80 62 80 107 130 158 91 77 55 125 119 124 150 133 147 138 142 132 124 123 130 133 135 137 137 136 138 139 146 154 162 170 168 159 156 144 134 132 124 120 114
259 266 265 253 308 182 95 93 92 102 126 4 98 33 7 59 86 119 143 143 135 137 123 128 137 127 121 119 125 133 133 132 122 101 71 115 113 128 165 174 187 179 180 160 158 154 129 125 119
257 201 228 241 56 54 59 77 86 121 114 26 298 94 99 63 142 117 141 143 116 134 131 132 136 122 118 116 112 116 120 117 117 129 141 127 101 180 317 285 238 213 200 171 163 162 144 134 101
230 257 291 129 136 138 72 65 57 94 65 147 86 269 83 88 98 127 138 125 145 147 128 144 125 130 122 115 104 102 110 94 93 124 128 105 149 195 271 276 270 249 213 172 161 162 161 137 123
303 249 269 114 105 79 77 141 203 225 94 102 284 119 93 123 139 138 143 141 156 139 145 136 140 139 134 140 129 116 96 121 73 84 120 106 179 221 244 278 277 242 209 177 155 149 181 136 155
272 303 35 50 72 118 51 231 253 314 192 186 309 72 125 148 128 147 117 127 121 152 127 151 156 154 154 137 108 121 123 115 92 51 326 170 194 217 238 260 256 225 204 193 169 186 220 204 195
275 326 64 63 37 46 52 239 342 269 22 149 319 342 2 126 152 127 137 139 114 139 147 154 161 168 153 161 129 138 149 138 118 190 339 231 187 233 219 251 215 224 221 214 219 204 260 263 247
267 304 45 13 46 313 90 242 182 297 246 198 81 44 116 131 160 128 140 132 136 164 173 165 166 168 160 205 185 194 156 205 179 214 229 212 242 200 207 230 160 211 212 215 219 220 243 261 242
313 24 33 359 340 316 48 351 312 192 199 172 162 103 116 149 163 155 151 162 179 166 163 167 172 174 168 195 206 184 165 76 82 237 168 11 282 297 357 207 183 215 222 226 238 241 232 244 84
338 23 336 331 3 319 350 231 257 223 225 350 186 109 141 160 173 144 156 171 172 179 155 165 169 181 179 189 165 170 169 177 153 242 187 173 256 270 213 175 185 206 211 213 67 260 216 231 237
274 344 344 337 332 302 268 320 247 247 346 173 170 169 150 176 177 142 167 186 165 172 153 151 172 181 187 160 174 170 182 177 168 210 188 202 222 251 267 276 166 7 188 135 175 217 105 302 167
278 340 321 351 342 287 287 259 270 264 233 156 121 138 167 179 171 145 154 150 186 158 151 159 161 175 178 170 167 189 170 177 190 185 194 200 241 250 239 240 275 68 287 249 116 312 185 204 259
332 317 286 355 337 312 297 273 221 152 162 181 163 169 172 180 174 132 152 154 144 158 154 147 171 175 171 190 192 186 181 162 209 176 193 201 243 240 236 188 222 157 298 291 41 328 289 252 248
290 270 216 192 4 290 322 233 210 186 192 172 187 177 157 179 175 150 168 160 153 164 172 171 155 180 185 188 192 178 180 174 190 192 185 208 182 237 297 218 279 121 250 9 234 243 254 263 219
251 293 254 72 304 100 307 37 101 147 203 179 191 164 166 175 172 162 156 158 150 159 162 165 181 181 187 195 180 186 240 161 178 190 194 183 189 226 234 172 220 129 259 182 228 193 199 275 277
219 211 34 293 102 312 235 310 213 188 209 195 158 166 174 173 167 172 164 157 201 144 172 166 205 166 179 194 177 172 186 150 180 157 193 182 180 213 252 193 164 161 256 156 267 103 301 288 217
245 331 315 318 27 334 276 329 30 162 214 226 162 173 177 173 175 165 172 168 170 156 174 188 186 176 175 186 172 187 165 151 213 181 185 161 200 213 219 198 92 236 224 202 272 356 345 295 343
289 263 280 1 353 325 5 24 32 185 173 218 178 164 177 198 174 166 181 168 175 169 174 188 176 181 185 181 190 181 183 157 187 148 180 188 220 193 203 240 166 245 284 39 9 247 224 283 127
264 254 273 296 330 275 355 67 56 41 148 188 233 170 171 182 158 176 185 173 190 174 181 194 173 189 192 186 203 180 181 163 177 160 179 204 187 188 221 267 194 190 199 122 288 292 292 128 37
227 274 23 316 326 287 60 333 103 96 109 167 210 236 174 165 168 189 192 196 187 168 185 196 187 182 203 188 189 195 167 147 177 169 187 194 186 190 217 207 268 189 299 175 193 255 306 272 133
265 102 289 289 293 265 128 236 102 108 110 148 182 203 235 182 179 170 205 198 190 176 182 193 172 186 199 178 202 191 189 165 190 195 178 179 196 198 185 193 201 224 248 40 192 233 251 288 275
284 354 282 287 280 330 93 108 93 56 65 117 175 184 205 155 211 165 223 164 203 179 188 183 179 179 192 189 190 189 214 172 192 202 172 176 177 207 210 182 201 191 238 180 272 138 265 260 307
275 283 266 256 244 352 332 113 296 55 44 63 124 154 177 152 211 169 202 155 186 189 196 179 182 184 193 191 197 200 212 242 183 195 166 194 178 191 196 192 189 202 231 182 215 232 228 288 335
230 249 252 216 184 216 128 39 56 71 54 59 81 137 169 158 207 178 186 194 188 186 186 185 182 192 194 188 200 198 205 232 194 198 193 188 204 179 167 196 190 199 218 220 214 197 253 227 265
214 256 276 243 102 248 186 124 88 79 56 72 72 75 158 185 193 192 197 194 194 178 196 190 180 193 193 192 197 193 205 216 218 200 210 221 202 192 156 185 201 220 199 216 202 221 227 209 206
159 232 327 287 190 99 220 104 96 81 82 71 71 52 35 15 181 208 196 202 194 192 200 199 187 196 195 194 192 195 198 219 213 195 217 246 243 196 153 182 214 207 215 209 209 233 195 220 230
281 334 247 256 184 287 352 171 119 110 90 75 62 70 52 42 10 345 284 203 206 203 188 204 192 199 197 198 197 193 195 204 220 207 208 228 216 218 251 178 200 213 201 226 210 248 182 213 238
189 227 239 309 333 332 286 64 101 110 90 86 72 59 49 41 28 2 321 294 211 207 205 187 195 203 201 201 196 197 200 197 213 208 206 227 223 218 243 195 219 212 215 209 215 235 278 220 224
318 304 311 273 241 1 324 106 111 96 81 81 74 63 50 40 29 21 10 351 308 265 229 198 190 211 204 199 201 201 201 204 199 217 200 204 223 206 203 219 227 229 226 236 208 224 222 231 219